Flag for Thailand Weather past 2 weeks in Udon Thani, Thailand

Now
86 °F

Broken clouds.


Feels Like: 95 °F
Forecast: 75 / 86 °F
Wind: 7 mph from West

Location: Udon Thani Airport

Current Time: Aug 2, 2014 at 12:34:02 PM

Latest Report: Aug 2, 2014 at 11:00 AM


Visibility: N/A

Pressure: 29.71 "Hg

Humidity: 70%

Dew point: 75 °F

Location of Udon ThaniLocation

Historic Weather in Udon Thani — Graph

°F

Udon Thani temperature yesterday

Maximum temperature yesterday: 93 °F (at 3:00 PM)
Minimum temperature yesterday: 79 °F (at 6:00 AM)
Average temperature yesterday: 86 °F

Past Weeks' High & Low Weather Summary

 TemperatureHumidityPressure
High93 °F (Aug 1, 3:00 PM)100% (Jul 21, 7:00 AM)29.83 "Hg (Jul 21, 7:00 AM)
Low75 °F (Jul 20, 7:00 AM)56% (Aug 1, 3:00 PM)29.56 "Hg (Jul 18, 3:00 PM)
Average83 °F81%29.69 "Hg
* Reported Jul 18 11:00 AM — Aug 2 11:00 AM, Udon Thani, Weather by CustomWeather, © 2014

Note: Actual official high and low records may vary slightly from our data, if they occured in-between our weather recording intervals... More about our weather records

Advertising

Udon Thani weather history for previous 24 hours

 ConditionsComfort  
Time TempWeatherWind HumidityBarometerVisibility
11:00 AM
Aug 2
86 °FBroken clouds.7 mph70%29.71 "HgN/A
10:00 AM86 °FPartly sunny.5 mph70%29.71 "HgN/A
9:00 AM84 °FBroken clouds.3 mph79%29.71 "HgN/A
8:00 AM82 °FPartly sunny.2 mph84%29.68 "HgN/A
7:00 AM81 °FPartly sunny.3 mph89%29.65 "HgN/A
6:00 AM79 °FScattered clouds.No wind94%29.62 "HgN/A
10:00 PM
Aug 1
81 °FPassing clouds.7 mph89%29.68 "HgN/A
9:00 PM82 °FClear.6 mph84%29.65 "Hg10 mi
8:00 PM84 °FPassing clouds.8 mph74%29.62 "HgN/A
7:00 PM86 °FScattered showers. Passing clouds.10 mph70%29.59 "HgN/A
6:00 PM90 °FScattered showers. Scattered clouds.6 mph63%29.56 "HgN/A
5:00 PM93 °FScattered clouds.7 mph56%29.56 "HgN/A
4:00 PM93 °FScattered clouds.9 mph56%29.56 "HgN/A
3:00 PM93 °FPassing clouds.10 mph56%29.59 "HgN/A
2:00 PM91 °FPassing clouds.7 mph59%29.62 "HgN/A
1:00 PM91 °FBroken clouds.8 mph63%29.65 "HgN/A
12:00 PM88 °FPartly sunny.8 mph66%29.65 "HgN/A
Weather by CustomWeather, © 2014

See weather overviewHow to use our weather pages